Wind_Speed
20 20 19 18 17 16 16 16 17 17 18 19 21 22 22 22 22 23 24 24 24 24 23 22 21 21 21 21 25 28 29 31 32 32 32 32 31 31 30 27 25 26 26 25 24 24 25 26 26 24 22 23 25 25 25 27 28 29 29 29 30 29 29 25 14 11 18 23 22 23 26 27 29 33 36 37 37 38 37 37 36 35 34 34 34
20 19 18 17 15 15 15 16 17 17 17 17 18 19 20 21 21 22 23 23 23 25 25 24 23 23 23 24 26 29 30 31 33 33 33 33 32 32 32 29 28 27 26 28 27 25 26 26 26 26 24 23 24 25 26 26 27 28 29 29 30 31 31 28 21 14 16 22 24 24 24 26 29 32 35 37 38 39 39 39 38 37 36 36 36
21 19 18 18 18 18 18 18 18 18 17 17 17 18 18 19 19 20 22 23 23 24 24 24 24 24 24 26 28 31 32 32 34 34 34 33 33 33 32 30 28 27 26 28 29 27 25 25 26 27 27 25 25 25 26 27 27 28 29 30 30 32 33 32 27 19 17 21 25 25 24 26 29 31 34 37 38 39 40 40 39 39 38 37 37
21 20 19 19 20 21 21 21 21 20 20 19 18 18 18 18 19 19 21 23 23 23 23 23 24 25 25 27 29 31 33 33 35 36 35 34 32 32 32 30 29 26 24 26 27 27 26 26 28 29 28 27 26 25 25 27 27 27 28 30 30 32 33 34 32 26 22 21 22 24 26 28 30 32 33 35 36 38 39 39 39 40 40 39 39
19 18 17 17 18 19 20 21 21 22 21 21 20 19 19 18 19 19 21 22 23 23 24 23 24 25 25 26 27 30 33 33 35 37 37 36 34 31 31 31 30 27 25 24 24 26 28 28 29 30 27 26 26 26 26 27 28 27 28 29 30 31 31 32 33 31 27 22 20 23 26 28 29 30 32 33 33 33 35 37 38 39 39 39 39
18 16 15 15 16 16 17 18 19 20 21 21 21 21 21 20 20 21 22 23 24 25 26 25 25 25 25 25 26 29 32 34 36 38 38 38 36 34 31 31 31 29 26 23 23 27 29 28 29 29 26 24 25 27 29 29 29 28 28 28 29 30 31 31 30 31 30 26 23 22 23 26 26 26 30 34 33 31 30 30 31 32 33 34 36
18 17 16 16 16 15 15 15 17 19 20 21 21 21 22 22 23 23 24 25 26 27 27 27 27 27 27 27 27 29 32 34 37 39 39 39 37 35 32 31 31 30 25 22 23 26 27 26 26 25 24 24 25 27 29 30 30 30 29 28 28 29 30 31 30 29 28 26 24 22 22 25 26 27 31 35 34 33 32 28 23 24 30 34 37
19 19 19 19 18 17 16 15 16 18 20 21 21 22 22 23 24 24 25 26 27 27 28 28 28 28 29 28 28 28 31 34 37 39 39 39 37 35 32 31 32 31 26 23 24 25 25 25 24 23 23 24 25 27 27 28 28 28 29 28 28 28 28 28 29 29 27 24 24 23 22 23 25 26 28 28 27 26 29 31 27 26 31 36 39
20 20 21 21 20 20 19 18 17 18 21 22 22 22 23 23 24 24 25 26 27 27 27 28 29 29 29 29 29 29 31 34 37 38 38 38 36 34 32 31 31 31 27 24 24 24 25 27 27 24 24 24 26 28 28 28 27 26 28 28 27 28 28 26 25 27 26 23 22 22 21 21 23 24 23 25 27 27 29 31 29 30 34 34 34
20 20 21 21 22 21 21 19 19 20 22 23 23 23 24 24 24 25 25 26 26 27 28 29 30 30 30 30 30 31 32 35 37 38 38 37 35 34 32 31 31 30 27 25 25 26 27 29 29 27 26 25 28 31 31 29 29 29 29 28 27 26 28 27 24 24 24 22 21 21 19 17 21 25 25 27 33 33 30 30 28 28 29 22 18
20 19 19 20 21 22 22 21 21 21 22 23 23 23 24 24 25 25 25 25 26 27 28 29 30 30 30 30 30 31 32 35 37 39 39 39 36 34 33 32 31 30 26 24 25 27 29 30 31 29 28 28 30 33 35 34 32 31 31 29 28 27 27 28 26 24 24 23 23 23 20 19 23 28 28 29 34 33 31 32 31 27 24 17 11
20 19 18 18 19 20 21 22 22 22 22 22 22 22 23 24 24 24 24 24 25 26 27 28 28 29 29 30 30 30 32 34 37 39 40 40 37 34 33 32 32 30 27 25 24 26 28 30 31 30 29 29 30 32 36 39 38 35 33 32 30 29 28 29 29 27 26 25 24 25 26 25 27 30 31 32 33 32 32 33 33 30 27 23 19
20 19 18 18 17 18 19 20 21 20 20 20 20 21 21 21 22 23 23 23 23 25 26 27 28 29 29 30 30 30 31 34 37 38 40 40 38 35 33 32 32 31 31 27 24 24 28 30 31 31 31 31 31 33 37 41 41 39 37 34 32 31 30 30 31 32 30 27 24 27 31 30 28 31 36 36 35 33 31 31 32 31 28 28 30
19 19 19 18 18 17 17 17 17 17 17 17 18 18 19 19 19 20 22 23 23 24 25 26 27 28 29 30 30 31 32 34 36 37 39 40 39 35 34 33 32 32 33 31 26 24 27 29 28 30 33 33 32 34 39 42 42 42 41 38 35 33 31 30 30 31 34 33 29 29 32 33 33 36 39 39 38 36 34 33 33 34 34 36 37
19 19 18 18 18 18 17 16 15 14 14 14 15 15 16 16 17 18 20 22 22 23 24 25 26 27 29 30 31 32 33 34 36 37 38 40 40 37 35 34 34 34 34 33 29 24 26 28 27 28 32 33 34 37 41 42 41 41 41 41 39 36 32 31 30 29 31 35 35 34 34 35 39 40 38 39 42 41 40 39 37 37 36 33 28
18 18 18 18 18 17 17 16 15 14 14 13 14 14 15 15 16 17 18 20 21 22 22 23 24 25 28 30 31 33 34 34 35 36 37 39 40 38 36 35 35 35 35 34 31 28 28 28 28 29 31 34 38 41 41 40 39 38 38 39 41 38 34 31 30 30 30 32 35 36 35 37 41 41 39 39 41 40 36 33 31 30 27 21 17
17 16 17 18 18 17 17 18 17 16 16 16 16 16 16 17 17 17 18 19 21 22 22 21 22 23 26 28 30 31 33 34 34 35 35 37 39 38 36 35 35 35 35 34 31 30 30 29 28 30 33 36 40 42 41 39 38 35 34 37 39 39 36 32 29 30 30 29 31 34 35 37 40 42 42 41 40 39 34 27 27 28 24 16 12
16 16 16 17 17 17 18 19 19 18 18 18 19 19 18 18 18 18 18 19 21 22 22 22 22 22 24 26 28 30 32 34 34 34 34 35 37 37 35 35 35 36 36 34 32 32 32 31 31 32 35 39 41 41 40 39 38 35 32 33 35 37 38 35 30 29 29 28 29 32 34 37 39 40 41 42 41 41 38 32 29 30 25 18 14
16 16 16 16 16 17 18 19 19 19 20 19 19 20 19 19 18 18 19 20 21 23 24 25 24 23 23 25 28 30 32 34 34 33 33 34 37 36 35 35 36 36 36 33 33 34 34 35 36 36 37 39 39 39 39 38 38 36 33 30 31 35 39 36 30 30 29 27 28 31 33 36 39 39 40 41 40 42 43 39 34 33 30 26 22
16 16 16 15 15 16 17 17 18 18 19 19 19 19 19 18 19 19 21 22 23 25 26 27 27 26 25 27 29 31 32 34 34 33 33 34 36 36 36 35 35 36 34 31 31 35 37 38 39 39 39 39 38 38 38 38 37 35 31 29 29 35 41 37 30 29 30 28 27 29 32 34 37 39 38 39 40 43 44 42 37 36 33 30 29
16 15 15 15 14 15 15 16 16 16 17 17 17 17 17 18 18 19 21 23 25 27 28 29 29 29 28 29 31 33 33 34 33 33 33 35 36 36 36 36 34 34 33 31 32 35 37 39 40 40 40 39 38 38 38 38 37 34 33 32 30 33 38 34 28 26 28 28 25 26 29 30 32 35 35 37 40 43 44 42 40 40 38 34 33
16 15 14 14 13 13 14 14 14 14 14 15 15 15 16 16 17 18 20 23 25 27 28 29 30 30 31 32 33 34 35 34 33 32 33 34 35 35 35 36 35 34 32 32 34 35 36 38 40 40 40 39 37 37 38 39 39 37 36 34 29 25 24 22 23 24 25 25 21 21 22 23 26 30 31 33 36 39 41 42 42 41 41 41 39
15 15 14 13 12 11 11 12 12 12 12 13 13 14 14 15 16 18 20 22 24 26 27 28 29 31 32 34 36 36 36 35 34 33 33 34 35 35 35 36 36 35 33 31 33 35 36 38 39 39 40 39 37 37 38 40 40 40 39 37 32 26 19 9 9 15 16 15 13 12 12 14 17 20 23 27 30 31 33 37 39 38 37 38 38
16 16 14 13 11 10 9 9 9 8 9 11 11 12 12 14 15 17 18 20 22 24 25 26 28 29 30 33 35 37 37 36 34 33 33 34 35 35 35 36 37 37 34 32 33 34 35 37 39 39 39 39 39 38 38 40 42 41 41 40 38 34 31 23 13 5 5 5 6 8 7 8 10 10 11 16 22 25 24 26 29 30 30 30 29
16 17 15 12 11 9 9 8 7 6 7 9 10 10 11 13 14 15 17 18 20 21 23 25 26 27 29 30 34 36 36 35 35 34 34 35 35 35 36 37 37 37 36 34 34 34 35 37 38 39 39 39 40 40 40 41 42 43 43 43 41 40 37 34 29 23 19 16 12 11 11 11 11 11 9 9 14 18 18 16 18 19 21 23 21
17 16 14 11 9 9 9 8 7 6 6 7 8 9 10 11 12 13 15 17 18 19 20 22 24 26 27 29 32 34 35 35 34 35 35 35 34 34 36 37 37 37 36 36 35 35 36 37 38 39 38 38 39 39 39 41 43 46 46 44 42 40 38 37 36 31 26 23 21 17 14 15 17 18 18 16 16 19 20 18 17 17 18 20 18
17 15 13 11 9 9 9 8 7 7 6 7 7 8 9 10 10 11 13 15 17 18 19 20 22 24 25 27 30 33 34 33 33 34 34 33 32 33 35 36 37 37 37 37 36 36 36 37 38 39 39 40 41 41 42 42 43 45 46 45 43 40 38 38 39 37 32 28 25 23 19 17 21 24 23 20 19 22 23 23 22 21 21 23 23
16 14 13 11 11 10 9 8 7 6 6 6 6 7 8 9 9 9 10 12 14 17 18 19 20 21 22 23 27 30 31 31 31 32 31 29 29 31 33 35 36 36 35 35 35 36 37 38 41 42 42 43 43 43 44 43 42 42 44 44 43 43 42 42 42 41 39 35 32 30 28 24 24 26 27 24 22 22 24 24 23 23 25 26 24
13 13 12 12 11 10 10 8 7 6 6 6 5 5 7 9 9 8 8 9 11 13 15 17 18 19 20 20 23 26 27 27 27 28 27 25 26 28 30 31 32 33 33 32 33 36 38 38 39 41 41 40 39 39 41 41 40 41 42 43 43 43 43 43 41 39 39 38 37 37 35 30 27 28 29 28 27 25 24 24 24 25 28 28 24
12 12 12 12 11 10 9 8 7 7 7 6 5 5 6 7 9 9 8 8 8 10 13 14 15 17 19 20 21 22 22 22 23 25 25 24 24 26 27 28 29 30 32 32 33 34 35 34 34 36 36 36 35 36 37 38 37 38 40 41 42 42 42 40 39 37 37 37 37 38 37 34 32 31 30 29 30 30 28 27 28 29 30 30 27
13 13 12 11 11 10 8 7 6 7 7 5 5 5 6 7 8 9 8 8 7 8 10 12 12 14 16 19 22 23 21 20 21 23 24 24 25 26 27 28 28 29 31 33 33 34 32 31 31 33 33 34 34 35 35 36 36 35 37 39 40 41 41 39 37 37 37 36 36 36 35 34 34 33 31 29 29 31 32 33 34 33 31 31 28
15 15 13 10 10 10 8 6 6 6 4 3 4 5 6 6 8 8 9 9 7 7 8 10 10 12 14 17 21 24 22 20 20 22 23 23 23 25 26 27 28 29 30 32 32 32 32 30 30 31 32 32 33 35 35 36 36 36 35 36 37 39 40 38 37 38 37 36 35 34 33 31 31 31 31 31 30 29 31 33 34 34 33 33 32
15 15 13 10 9 8 7 6 5 5 3 3 4 5 5 6 7 8 9 10 9 8 8 9 10 12 14 16 20 23 22 19 18 20 22 22 21 22 24 26 27 29 30 31 30 30 31 30 30 31 32 31 32 34 34 35 36 36 36 35 35 36 38 38 39 39 38 36 34 33 32 29 27 27 29 29 28 28 28 30 32 33 33 32 31
14 14 12 9 7 6 6 6 6 5 4 3 3 4 4 5 6 7 9 10 10 9 8 8 10 12 13 16 20 22 21 19 17 18 20 21 20 20 22 24 26 27 29 30 29 29 29 30 30 31 32 32 32 32 33 34 35 35 36 36 35 36 37 39 39 38 37 37 35 33 31 29 27 26 26 26 27 27 27 28 29 30 30 28 28
13 12 10 8 6 6 6 7 6 6 5 4 3 2 3 5 6 7 8 9 11 10 8 8 10 12 13 15 19 22 21 20 17 16 18 20 20 20 22 25 27 28 28 29 29 28 28 28 29 29 31 31 32 31 32 33 33 33 34 35 36 36 37 38 37 36 36 36 35 33 31 29 27 26 25 25 25 25 26 26 27 26 26 26 27
12 12 9 7 6 6 6 6 6 6 5 4 3 1 1 4 6 6 7 8 9 10 8 8 10 11 12 14 18 21 22 21 18 16 16 18 20 22 25 26 27 27 27 28 28 28 28 28 28 28 29 30 31 31 30 31 33 33 34 34 35 35 35 36 36 36 35 34 33 33 32 30 27 26 26 25 24 24 23 23 24 24 24 24 24
11 11 9 7 6 6 7 7 5 4 3 2 1 0 1 2 4 5 6 8 9 9 9 8 9 11 12 14 17 20 21 21 19 17 17 17 19 21 23 25 25 26 26 27 27 27 28 27 27 27 27 28 29 29 29 30 32 33 35 35 35 34 34 34 35 35 34 33 32 32 31 30 27 25 25 25 24 23 23 22 22 21 21 21 21
11 11 8 6 5 6 7 7 5 2 1 0 1 2 3 3 3 4 6 7 8 9 8 8 9 10 11 13 16 19 21 22 22 21 20 18 18 19 21 21 22 24 25 25 25 26 26 26 26 26 26 26 27 27 27 28 30 31 34 35 35 34 34 35 35 34 33 31 30 30 30 29 26 23 23 23 22 21 20 20 20 20 20 20 20
11 10 7 5 5 6 7 7 6 3 2 1 2 3 3 4 3 3 5 6 7 8 8 7 7 9 9 10 13 17 20 22 22 21 20 18 16 17 18 19 20 22 23 24 24 25 25 26 25 24 24 24 25 25 25 26 27 29 31 33 34 35 33 32 32 32 31 29 28 27 28 27 24 21 20 19 19 18 17 17 16 17 18 20 21
10 8 7 6 5 5 6 7 6 5 3 2 2 3 3 3 3 2 4 6 6 7 7 6 7 9 8 8 11 15 17 19 19 19 19 18 16 15 16 17 19 20 22 23 24 24 24 25 25 24 22 23 23 24 24 25 26 28 29 30 32 33 32 30 29 28 27 26 25 25 24 24 22 20 18 17 16 16 16 16 15 16 17 19 20
10 8 7 6 6 6 6 6 5 4 2 2 3 3 2 1 3 2 3 5 5 6 6 5 6 8 7 7 9 12 14 16 17 17 17 17 16 15 15 16 17 18 20 22 22 23 22 23 23 23 22 22 23 23 24 24 26 27 28 28 29 30 31 30 28 26 24 24 23 22 21 20 20 19 18 16 15 14 15 16 15 16 17 18 18
9 9 8 8 8 8 7 6 5 3 1 1 2 2 1 2 3 2 2 4 5 5 5 4 5 7 6 6 7 9 11 13 14 16 16 17 17 16 15 15 15 16 18 19 20 20 20 20 21 23 23 24 24 23 23 24 25 26 27 27 27 28 29 29 27 25 22 21 21 21 19 19 18 17 16 15 14 13 14 14 15 15 16 16 15
9 8 9 10 11 9 8 7 5 3 2 1 1 1 1 3 4 2 2 4 5 5 4 3 5 6 6 6 6 8 9 11 12 14 15 16 16 16 16 16 15 15 16 16 16 16 17 17 18 20 21 23 24 23 23 23 23 23 24 25 25 25 26 26 26 24 22 20 20 19 19 18 17 16 15 14 13 12 11 12 12 12 13 13 13
10 9 9 12 12 10 9 8 6 4 3 3 2 2 3 5 5 3 3 4 4 4 3 3 4 5 5 6 6 7 8 9 10 11 13 14 15 16 16 17 16 16 15 14 13 14 15 16 16 17 19 20 23 23 23 22 21 21 22 23 23 23 23 23 23 23 21 19 18 17 17 17 17 16 15 14 12 11 10 9 9 9 9 10 11
11 10 11 14 13 11 10 9 6 5 5 5 4 4 5 6 6 4 4 4 3 3 3 2 3 4 5 5 6 7 8 8 8 9 11 12 13 14 15 16 17 17 15 13 12 13 15 16 16 17 18 19 21 23 23 22 21 21 21 21 20 20 20 19 19 19 19 18 17 15 15 15 15 14 14 13 12 10 8 7 6 6 6 6 6
10 11 13 15 14 12 11 9 7 7 7 6 5 6 8 8 7 6 5 4 3 3 3 2 2 3 5 5 6 7 7 8 8 9 9 10 11 12 13 15 15 16 15 13 12 12 13 15 16 17 17 18 19 21 22 22 21 20 20 20 19 17 16 15 16 16 15 16 16 14 13 13 13 13 12 12 10 10 9 8 6 4 4 4 3
10 12 14 16 14 12 11 10 8 9 9 7 6 8 10 9 9 8 7 5 3 2 2 3 3 3 4 5 6 7 8 8 9 9 9 9 10 11 12 13 14 14 14 13 12 11 12 14 15 16 17 17 18 19 20 21 21 20 19 19 19 17 15 13 13 13 13 14 14 13 12 12 12 12 13 11 10 9 10 11 10 8 6 5 4
11 12 14 16 15 14 13 11 10 11 11 10 9 10 11 11 10 10 8 6 5 3 3 4 4 4 5 6 7 7 8 9 10 10 10 10 10 10 11 12 12 13 13 13 12 11 12 14 15 15 16 17 18 18 19 20 20 20 19 19 19 18 15 13 11 11 11 12 12 12 11 11 10 11 12 12 11 10 10 10 10 9 8 7 6
12 12 13 15 16 15 14 13 12 13 13 13 12 12 12 12 12 11 10 9 7 6 5 6 5 5 5 6 7 7 8 9 9 10 10 10 10 10 10 11 11 12 12 12 12 12 13 14 14 14 16 16 17 18 19 19 19 19 19 20 20 19 16 13 11 10 9 9 9 10 10 10 10 10 10 11 11 10 9 9 9 8 7 7 6
15 13 13 15 17 17 16 15 15 15 16 16 15 14 13 14 14 13 12 11 10 8 7 7 7 6 6 7 7 8 7 7 8 9 10 10 10 11 11 11 11 11 11 10 10 11 12 13 13 13 14 15 15 16 18 18 17 17 18 19 20 20 18 15 11 9 8 7 8 8 8 8 8 8 8 9 9 8 8 8 8 7 6 5 5
16 14 14 16 17 17 16 17 17 17 18 18 18 17 15 15 15 15 14 13 12 10 9 8 8 7 7 7 8 8 8 7 7 8 9 10 10 11 11 11 11 11 11 10 9 10 10 12 12 13 13 14 14 15 16 16 16 16 17 18 19 21 20 18 14 10 8 7 6 6 7 7 7 7 7 7 7 7 7 7 6 6 5 4 3
Wind_Direction
96 92 88 86 82 79 74 72 71 70 67 60 52 49 49 50 48 42 37 34 33 36 37 36 34 32 30 24 17 15 13 12 12 10 8 5 2 2 0 353 345 340 333 325 319 318 319 319 316 314 312 303 290 278 267 261 256 249 242 236 232 229 225 222 225 240 238 235 236 236 231 227 224 222 219 218 220 222 224 227 228 228 227 226 224
99 96 92 88 84 81 78 74 72 69 66 62 56 51 49 51 49 42 38 36 37 39 40 39 36 33 28 23 18 15 13 11 10 9 7 4 1 2 2 357 350 344 341 338 333 325 320 317 315 315 314 308 297 286 277 269 262 254 247 242 235 232 228 223 222 230 237 235 232 233 230 224 223 222 219 216 217 219 220 221 223 226 226 225 223
99 96 92 86 82 80 78 76 73 69 66 63 61 56 53 54 51 44 39 40 42 41 39 36 32 29 25 21 17 15 13 12 10 8 6 3 1 2 2 358 351 344 339 341 341 335 329 322 318 317 316 313 304 293 286 280 273 262 255 249 240 235 231 227 224 225 231 236 232 227 225 223 223 222 220 218 218 217 217 217 219 222 224 224 223
100 96 92 89 85 81 79 77 73 69 66 64 64 62 59 58 55 48 42 41 42 40 36 33 30 27 24 21 17 14 13 11 9 8 6 3 360 360 1 358 353 345 337 337 339 338 333 328 327 326 320 314 308 301 293 287 280 271 262 255 246 239 234 229 226 225 227 233 230 225 225 223 222 222 219 216 216 217 216 215 217 219 221 222 222
102 100 98 96 91 86 83 80 74 68 65 64 64 64 63 61 57 50 43 40 40 39 37 34 30 27 24 20 16 13 12 11 8 7 6 4 1 359 359 358 355 348 340 336 336 336 334 329 330 332 326 314 308 305 300 294 287 276 265 259 252 244 237 230 227 225 225 228 226 225 225 223 221 220 216 211 210 213 215 214 214 216 217 217 218
102 101 101 98 95 91 87 82 75 69 65 64 64 63 62 60 56 51 46 44 43 42 40 36 32 29 25 21 17 13 12 10 8 6 6 5 4 1 359 356 353 349 344 339 336 337 338 334 332 333 328 318 312 309 308 306 302 290 273 262 255 248 239 232 228 225 224 228 228 224 220 218 216 214 213 211 208 207 208 210 212 211 209 209 212
101 98 97 94 93 92 89 86 80 72 67 66 66 63 60 58 55 53 50 48 46 43 40 37 33 30 26 22 18 14 12 11 9 7 6 5 3 1 358 356 353 350 344 337 337 340 340 337 334 332 327 322 318 315 314 314 312 305 290 273 260 252 242 232 226 223 224 226 227 224 220 218 215 212 214 212 209 207 202 199 201 203 204 206 208
103 96 92 89 88 89 90 92 88 77 70 68 67 65 62 59 56 54 51 48 45 42 39 35 32 29 26 22 19 15 13 11 9 7 6 4 3 1 359 356 354 352 346 339 340 342 340 337 335 332 326 322 321 322 321 320 319 314 305 289 268 256 247 235 223 219 222 223 223 223 220 218 215 213 213 208 202 204 202 198 197 195 199 207 210
106 97 91 87 85 88 91 95 91 80 71 70 69 67 64 60 56 53 50 47 44 41 37 33 30 26 24 21 19 17 14 11 9 9 7 4 2 1 359 357 355 352 346 342 342 341 341 341 338 334 329 326 327 327 324 321 321 319 315 306 287 265 252 241 227 218 216 218 221 219 216 216 211 206 203 198 197 203 203 201 202 200 200 204 208
109 100 94 89 87 88 91 93 89 80 74 71 69 66 63 59 56 53 50 47 43 39 36 32 29 25 22 20 18 17 15 12 11 11 10 7 4 2 360 358 357 354 347 343 343 342 342 341 340 337 335 334 334 334 330 325 321 318 314 312 305 285 263 247 233 221 216 216 216 212 212 215 208 203 202 199 201 205 201 197 202 204 200 196 198
111 103 98 94 90 88 89 90 86 80 75 71 67 65 61 58 55 52 49 46 42 39 36 33 30 27 24 22 19 17 15 12 12 12 12 10 7 3 0 358 357 355 350 344 342 342 341 341 340 339 337 337 335 334 335 334 327 320 313 306 304 297 279 261 245 228 218 216 216 211 209 214 212 208 207 204 202 203 199 198 200 199 193 187 184
112 106 101 98 94 91 89 87 84 79 74 71 67 64 61 57 54 50 47 43 41 39 37 34 31 28 26 24 21 18 15 13 12 12 12 11 9 5 1 359 357 355 351 345 339 340 341 340 340 339 337 336 336 335 335 336 333 327 320 309 301 296 287 275 261 244 227 217 215 213 211 213 214 210 208 206 204 202 200 200 200 197 194 193 191
111 106 102 99 97 94 91 87 83 79 75 72 68 64 60 57 53 49 45 43 41 39 38 35 33 30 26 24 21 18 15 13 12 11 10 10 9 6 2 360 357 354 352 348 340 337 340 340 338 338 337 336 337 337 335 334 333 330 326 319 308 297 289 281 272 261 248 232 218 216 215 213 212 213 211 208 204 200 199 200 200 199 199 201 203
111 107 102 98 94 94 92 89 85 81 78 73 68 63 59 55 51 47 43 42 41 39 38 35 33 30 26 22 19 16 14 12 11 10 9 9 8 6 2 360 357 355 354 352 345 337 338 339 336 334 335 335 336 337 335 333 332 329 326 323 316 305 295 286 278 271 262 251 236 228 224 219 218 220 217 211 206 203 201 200 200 200 204 210 212
116 110 104 97 93 91 91 90 88 83 79 74 68 63 57 52 49 44 41 42 41 38 36 34 32 29 25 22 19 16 15 12 10 10 9 8 7 6 2 360 357 355 354 354 351 342 338 339 336 333 333 333 335 336 336 334 331 327 322 320 318 311 301 289 281 276 270 262 253 243 234 228 226 225 219 213 211 211 209 207 205 204 207 214 214
122 116 108 99 92 90 91 91 89 85 80 76 70 64 57 51 47 44 43 43 41 37 35 31 29 27 25 22 19 17 16 14 10 9 9 8 7 5 3 360 357 355 354 354 352 346 343 341 338 335 333 334 336 338 338 336 331 324 318 315 314 310 301 291 282 276 272 268 263 255 244 234 229 227 223 219 216 213 210 209 207 204 202 206 205
128 121 114 103 94 91 92 92 90 86 82 78 73 66 60 54 50 48 47 44 39 35 32 29 27 25 23 21 16 13 14 13 10 8 10 9 7 5 3 359 357 355 354 353 351 347 346 344 340 339 338 338 339 340 341 340 332 324 317 312 310 306 300 294 285 277 272 267 265 263 253 240 232 229 227 224 219 211 205 202 202 198 192 192 197
130 126 122 112 100 95 97 95 92 90 85 80 76 69 63 59 55 53 51 45 39 34 30 29 28 24 21 19 15 11 11 12 10 9 10 11 8 6 3 359 357 355 354 353 352 349 347 346 346 345 342 341 342 343 345 342 335 327 319 312 307 302 299 295 284 274 271 266 261 261 255 242 234 230 227 225 221 213 207 203 199 194 191 194 192
130 126 127 122 109 102 101 98 94 91 87 82 77 71 66 63 60 58 53 46 41 36 32 29 28 26 22 20 17 14 11 11 11 10 11 12 10 7 5 1 358 355 354 352 351 350 350 349 350 350 346 345 347 348 348 346 339 332 325 316 304 297 297 294 281 269 264 259 255 254 251 241 233 230 229 227 223 218 214 208 200 195 197 198 190
132 127 130 129 119 107 102 99 95 91 87 82 78 72 67 64 61 56 52 46 41 37 34 31 29 28 26 22 20 17 13 11 11 12 13 13 11 9 8 4 359 355 354 352 350 350 351 350 351 351 349 350 352 352 351 349 346 339 331 323 310 300 296 291 279 268 260 255 254 253 251 244 234 230 228 227 224 221 218 214 206 201 199 195 190
138 133 134 134 125 112 103 99 95 92 86 81 76 71 66 62 58 53 48 43 39 36 32 30 29 28 26 23 19 17 15 12 11 13 15 13 12 11 9 7 2 357 355 355 353 352 352 351 350 351 352 353 355 356 355 353 353 349 341 334 325 308 295 281 270 266 257 249 249 249 247 243 234 228 224 222 221 219 217 216 213 209 205 199 195
144 138 137 138 131 117 107 99 95 91 86 78 73 69 64 59 54 50 44 40 37 34 30 28 26 24 24 22 18 16 15 14 13 14 15 13 12 12 10 9 7 3 359 358 356 355 353 351 351 352 354 356 359 1 360 359 359 357 352 351 347 331 307 278 262 261 252 241 238 237 237 235 230 225 220 217 216 215 214 213 212 211 211 209 205
152 145 141 141 134 122 112 104 95 88 81 74 68 64 59 55 51 46 41 38 34 31 28 25 23 21 19 18 17 14 14 15 15 14 14 12 12 11 10 9 9 7 4 0 357 356 355 355 355 356 358 1 4 5 4 4 4 3 3 7 10 9 8 351 267 248 234 221 212 207 210 217 219 219 218 215 213 214 213 212 211 211 212 212 212
153 150 145 142 133 122 113 107 99 87 76 68 62 59 53 49 47 43 39 36 32 28 25 22 20 18 15 13 13 13 12 14 15 14 12 11 11 10 9 9 9 9 7 5 1 359 359 359 360 1 3 5 7 9 9 9 9 9 11 17 22 25 29 33 39 69 117 134 145 143 147 170 185 193 205 209 207 208 210 209 210 212 210 208 208
146 151 149 142 131 121 113 106 98 84 71 61 57 54 47 42 42 40 37 35 30 26 23 19 17 15 12 10 9 10 11 12 12 12 11 10 9 9 9 10 10 10 10 9 7 6 6 6 6 6 7 8 10 12 12 11 13 15 18 21 25 28 30 32 39 46 48 47 55 72 88 106 124 130 132 149 170 177 180 184 187 191 193 193 192
137 147 148 143 136 127 118 110 98 81 68 59 55 51 43 37 35 34 34 33 29 24 21 18 15 13 10 8 7 8 10 11 10 10 9 8 7 9 11 12 13 14 13 11 12 12 11 11 10 9 9 10 12 13 13 13 17 20 21 23 25 27 30 34 37 37 35 36 39 41 56 83 102 113 114 108 112 125 134 139 139 141 153 158 148
132 138 141 143 142 134 123 115 103 83 69 62 58 51 43 36 30 28 29 28 26 23 19 16 13 10 8 7 6 7 9 10 10 9 7 6 7 10 13 15 16 17 15 14 14 15 14 14 14 13 12 14 15 16 16 16 18 20 21 22 25 27 31 37 41 39 36 36 39 38 43 63 84 96 101 96 91 101 114 119 116 114 121 126 115
128 130 131 133 134 133 129 123 107 85 73 69 64 53 45 37 28 25 25 23 22 21 17 14 11 7 6 5 4 5 7 10 11 10 7 8 10 11 15 19 19 19 17 15 15 17 17 17 17 15 14 14 14 16 16 15 17 19 20 22 25 27 32 38 41 41 39 38 41 43 41 44 58 74 84 83 78 88 104 109 106 106 109 108 100
123 121 119 117 121 129 130 123 106 88 80 75 66 55 45 37 30 25 22 20 20 18 16 15 11 6 7 9 6 4 6 9 10 8 7 12 16 15 17 21 20 20 19 17 18 19 18 16 15 13 12 10 10 11 13 13 13 17 20 22 25 27 31 34 34 37 39 39 40 42 40 37 43 57 69 70 69 77 92 98 97 98 100 95 85
129 126 120 110 110 119 123 118 105 92 85 72 56 45 40 35 31 27 20 15 16 17 17 17 10 3 6 11 10 7 5 6 6 5 7 14 19 19 20 22 21 20 21 20 21 20 17 14 13 11 10 8 7 9 10 10 11 13 17 21 24 26 29 31 32 35 40 41 42 43 42 39 41 47 55 61 65 71 79 84 87 88 89 86 77
135 134 129 115 106 106 109 114 113 101 90 73 50 36 26 27 29 28 23 16 9 11 17 18 10 2 3 8 9 7 6 6 5 4 5 12 16 19 21 24 23 22 21 22 22 20 17 13 11 10 10 9 8 8 9 10 10 12 15 20 23 25 27 29 31 35 39 41 43 45 45 45 45 45 48 54 61 67 72 75 77 79 80 81 77
140 136 133 122 107 98 96 103 118 117 104 81 61 39 21 18 23 25 26 23 13 8 15 17 10 4 7 9 7 5 6 7 5 4 6 10 14 17 21 24 25 25 24 23 21 18 16 14 12 10 10 10 9 10 11 12 12 13 16 18 21 24 26 28 33 38 39 39 40 43 45 48 51 52 52 53 55 60 66 69 72 73 73 74 75
145 139 137 130 115 101 92 96 113 125 123 99 74 49 22 13 12 12 17 22 18 13 13 11 6 5 10 12 9 7 7 7 4 4 7 9 12 15 18 21 26 27 25 23 20 16 14 15 14 13 13 13 13 13 14 15 15 16 18 19 20 23 27 31 35 38 38 39 40 41 43 47 54 59 59 57 55 57 61 66 71 73 72 71 71
149 142 138 133 122 111 106 105 109 119 124 112 81 46 25 18 11 2 5 12 14 13 12 5 0 3 9 12 11 9 9 8 5 4 7 9 10 12 14 18 25 29 28 24 20 17 15 14 14 14 15 15 16 16 17 17 18 20 21 21 23 25 28 32 35 36 36 38 40 41 42 45 51 57 60 60 58 58 59 64 70 74 75 76 75
152 145 137 129 124 129 132 123 116 117 119 108 83 42 24 24 20 10 4 5 6 7 9 2 356 360 7 12 12 12 11 10 7 6 8 10 10 11 15 20 23 25 26 25 22 21 19 16 16 17 17 17 17 18 19 20 21 23 24 24 26 27 29 32 34 34 35 37 38 39 43 46 50 56 62 64 63 61 60 65 70 73 77 80 81
155 152 145 137 135 146 153 144 129 121 116 100 82 61 22 23 23 16 5 0 359 1 5 2 353 355 4 12 13 14 15 15 12 9 10 13 13 16 21 24 22 21 22 24 25 25 24 21 20 22 22 21 21 21 24 26 27 28 28 28 28 29 30 32 33 34 36 37 37 39 42 46 50 57 62 63 64 64 66 69 73 75 79 82 84
156 157 155 150 151 161 165 159 147 133 119 98 68 6 324 7 17 10 357 354 356 358 1 359 351 349 360 11 13 14 16 18 19 18 15 14 16 21 25 26 23 22 24 25 26 26 26 24 22 22 23 24 24 24 27 30 31 31 31 31 31 31 31 32 34 35 36 37 38 39 40 43 49 56 60 61 62 64 66 69 71 72 77 82 84
158 162 161 158 164 176 181 178 170 162 159 86 331 305 289 308 343 354 348 345 349 352 352 351 346 345 355 9 13 13 14 17 19 21 19 16 17 22 24 24 23 23 24 25 25 25 24 24 22 21 22 24 25 26 27 29 31 31 32 31 32 33 32 32 33 34 36 38 40 40 41 42 46 52 58 60 60 60 61 65 67 69 71 75 79
166 169 176 180 180 187 195 197 198 209 235 301 343 336 302 284 293 331 341 337 339 343 343 340 339 343 353 7 11 12 15 17 17 17 17 16 15 16 18 19 19 19 19 22 23 22 22 22 21 19 20 22 24 25 24 25 27 29 30 31 32 32 33 32 32 34 36 39 41 42 42 42 45 49 54 56 55 54 55 58 64 69 72 75 79
183 181 187 195 198 197 194 196 208 227 246 283 330 344 329 283 247 280 327 328 328 333 333 330 336 342 349 4 10 12 15 18 16 14 14 13 11 9 10 12 12 11 12 15 17 17 19 21 21 19 18 19 20 21 22 23 25 27 29 30 31 31 32 31 32 34 37 39 41 43 43 43 44 47 50 53 52 51 52 57 66 76 81 83 86
195 194 195 198 203 200 188 188 206 223 238 290 301 307 315 262 206 236 313 316 316 324 324 320 332 342 346 358 8 11 14 17 17 15 14 13 10 6 4 3 4 4 5 8 11 13 15 20 22 22 22 20 19 18 20 22 24 26 27 29 30 30 30 30 31 34 37 37 39 42 43 43 44 44 46 49 50 50 53 62 74 84 88 88 90
196 201 208 207 205 203 198 197 206 213 218 299 291 277 249 194 187 202 298 307 309 316 315 312 327 338 343 349 359 5 11 15 18 17 17 15 13 10 6 3 2 2 2 4 8 11 14 18 22 24 25 25 22 19 18 18 20 23 25 26 27 28 28 28 30 34 37 38 39 40 41 42 42 43 43 45 48 52 58 67 77 85 88 88 90
208 215 217 209 205 209 210 208 216 230 232 213 210 222 203 188 179 185 270 296 304 310 305 307 323 334 338 341 346 353 1 9 15 18 18 18 17 15 12 8 5 3 2 3 8 13 16 19 22 25 26 25 22 20 17 14 13 15 17 19 22 25 26 27 28 31 36 39 39 41 43 44 44 43 42 41 42 46 56 68 76 80 81 84 89
213 218 212 203 202 210 213 212 220 235 221 194 189 205 201 188 182 194 251 276 298 307 295 293 315 326 331 334 336 339 347 357 7 13 15 18 19 18 16 13 10 7 6 6 9 14 17 19 22 24 24 23 22 20 17 13 9 7 7 9 13 17 22 24 24 25 29 34 36 40 43 46 49 51 48 43 41 40 44 54 67 73 77 82 88
208 210 207 200 201 209 213 211 213 213 201 196 202 196 186 187 198 217 238 259 291 306 288 276 299 316 321 324 324 327 332 341 353 1 6 10 13 15 17 18 15 12 10 9 10 13 16 17 17 19 21 22 21 20 18 15 12 9 6 6 8 11 16 20 22 22 25 29 32 36 39 41 45 51 52 50 49 46 43 43 49 60 68 75 86
207 209 207 202 203 211 215 211 208 205 200 201 206 196 188 193 207 219 228 245 279 299 288 265 272 296 309 313 312 314 318 325 335 345 351 356 1 6 11 15 16 15 12 9 6 7 10 11 12 14 15 16 17 17 16 15 14 13 11 9 9 11 13 16 18 20 23 26 29 35 41 43 42 41 42 46 51 57 61 63 60 62 67 63 69
208 208 209 207 207 212 215 213 213 213 211 211 210 203 199 203 210 216 224 238 255 276 284 270 261 274 294 301 302 306 310 313 320 328 334 339 346 354 359 5 11 13 12 10 5 360 360 3 6 9 10 11 12 13 12 11 12 13 13 12 11 10 12 14 15 18 22 24 27 30 35 42 46 43 41 44 53 62 66 65 63 68 79 80 78
210 207 210 212 211 214 219 222 223 222 220 220 218 213 210 211 213 215 221 231 240 253 267 267 265 273 286 291 293 297 301 305 310 316 320 323 330 339 346 352 359 4 8 10 7 359 356 358 1 4 7 9 9 8 7 7 9 12 13 14 13 11 10 10 12 15 18 23 28 30 30 33 41 45 46 50 57 62 63 59 58 66 78 83 84
219 213 216 219 218 217 221 227 230 230 228 226 224 221 219 218 218 219 223 229 234 245 255 260 263 274 286 290 291 291 293 298 307 313 315 314 316 323 331 339 346 352 359 5 6 3 2 2 3 4 6 8 9 7 4 4 6 9 11 14 15 13 10 7 7 8 10 16 25 30 29 29 33 39 44 50 53 56 57 55 53 60 75 83 84
230 225 226 228 226 223 224 230 237 240 238 233 229 228 226 224 223 223 225 228 233 240 248 252 256 267 281 292 294 291 291 297 307 315 317 314 311 311 316 323 331 338 345 352 356 358 0 3 3 3 3 5 7 7 5 5 5 6 7 10 12 12 11 9 5 360 358 4 15 22 23 24 27 31 37 42 43 44 48 48 43 44 55 70 83
234 231 231 231 229 227 228 233 239 244 244 240 236 234 232 230 229 229 229 230 234 240 245 248 250 255 269 287 295 292 289 295 307 316 318 316 312 308 307 312 319 325 331 337 342 344 346 351 353 355 355 356 356 359 2 4 4 3 4 5 7 9 10 10 7 359 351 348 351 0 8 13 17 21 27 31 33 32 33 33 32 31 35 45 65
Height
848 848 848 848 848 848 847 846 844 843 842 841 840 839 838 836 835 835 833 832 831 829 827 826 825 824 823 822 820 817 815 812 810 807 805 802 800 797 795 792 790 788 785 783 781 779 777 775 773 772 771 770 768 767 766 766 765 765 765 765 764 765 765 765 764 762 762 763 764 765 766 767 768 768 770 772 774 776 778 781 783 785 787 789 792
849 850 850 850 850 849 848 846 845 844 843 843 842 841 840 838 837 837 835 834 832 830 829 827 826 825 824 822 820 818 815 813 810 807 805 802 799 797 794 792 790 787 785 782 780 778 776 773 771 770 769 768 766 765 764 763 763 762 761 761 760 760 761 760 760 759 758 759 760 761 762 764 764 764 766 768 769 771 774 776 778 780 782 785 787
851 851 851 851 851 849 848 847 847 846 845 844 844 843 841 840 839 838 837 836 834 832 830 829 827 826 824 823 821 818 816 813 811 808 805 802 800 797 794 792 790 787 785 783 780 778 775 773 771 769 767 766 764 762 762 761 760 759 758 758 757 756 756 756 756 755 755 755 756 757 758 759 760 761 762 764 766 767 769 772 774 776 778 781 783
852 853 853 853 852 851 850 849 849 848 847 846 845 844 843 842 841 840 839 837 835 833 832 830 829 827 825 823 822 819 817 814 811 809 806 803 800 798 795 793 790 788 785 783 780 778 776 773 771 769 766 764 762 760 759 758 757 756 755 754 753 752 752 752 751 751 751 752 752 752 753 754 755 757 759 761 763 764 765 768 770 771 774 776 779
854 854 854 854 853 852 851 851 851 850 850 848 847 846 844 843 842 841 840 838 836 834 833 831 830 828 827 825 823 821 818 815 812 809 806 804 801 798 795 793 790 788 785 783 780 778 776 773 771 768 766 764 761 759 758 756 754 753 751 750 749 748 748 747 747 748 748 748 747 748 749 750 752 754 756 758 760 761 762 764 766 768 770 773 776
855 856 856 855 854 854 853 853 853 852 851 850 848 847 846 845 844 842 841 839 837 836 834 833 831 830 828 827 825 822 820 817 813 810 807 804 801 798 795 793 791 788 785 782 780 778 775 773 770 768 766 764 761 759 756 754 752 750 748 746 745 744 744 743 743 744 744 744 744 744 745 747 749 751 752 754 755 757 759 762 764 766 768 770 773
857 857 856 856 855 855 854 855 854 853 852 851 850 848 847 846 845 844 843 841 839 837 836 834 833 831 830 828 826 824 821 818 814 811 808 804 801 798 795 793 790 787 785 782 780 777 775 772 770 767 765 763 760 758 755 753 750 747 745 743 741 740 739 738 738 739 740 740 741 741 742 744 746 747 748 749 751 752 755 758 761 763 765 767 769
858 858 857 856 856 856 856 855 855 855 854 852 851 850 849 848 847 846 844 842 840 839 838 836 834 833 831 829 827 825 822 819 816 812 809 805 802 799 796 793 790 787 785 782 779 777 774 772 769 766 764 762 759 757 754 752 749 745 742 740 738 737 735 734 734 734 735 736 737 738 739 741 742 743 745 746 747 749 750 753 756 758 760 762 764
859 859 858 858 857 857 857 856 856 856 855 853 852 851 850 850 849 847 845 844 842 841 839 838 836 834 832 830 828 826 823 821 818 815 811 807 803 800 797 794 791 788 784 782 779 776 774 770 767 765 762 760 757 754 752 749 747 744 740 738 736 734 732 731 730 730 730 732 733 734 736 737 737 739 740 741 742 744 747 749 751 753 755 758 760
860 860 859 859 859 858 858 857 857 857 855 855 854 853 852 851 850 848 847 845 844 842 841 839 837 836 834 831 829 827 824 822 819 816 813 809 804 801 797 794 791 788 785 782 779 775 773 769 766 763 760 757 754 750 747 745 742 740 738 736 734 732 729 727 726 726 726 726 727 729 731 732 733 734 735 736 738 741 743 745 747 750 752 755 757
861 861 861 861 860 860 859 858 858 857 856 856 855 854 854 852 851 850 848 847 846 844 843 841 839 837 835 833 830 828 825 823 820 816 813 809 805 801 798 795 792 789 786 782 779 775 772 768 765 761 758 755 752 748 744 741 738 735 733 731 729 728 727 724 722 721 721 721 722 724 725 726 728 730 731 732 735 737 738 740 742 745 748 750 754
863 862 862 862 861 861 860 860 859 858 858 858 857 856 855 854 853 851 850 849 848 846 844 843 841 839 836 834 832 829 827 824 821 817 813 810 806 802 799 796 792 790 787 783 780 776 772 768 764 760 757 754 751 746 742 737 733 731 728 725 724 722 722 721 718 717 717 716 717 718 719 720 722 724 725 727 729 731 733 735 737 739 741 743 746
864 863 863 863 862 862 861 861 860 860 859 859 858 858 856 855 854 853 852 851 849 847 846 844 842 840 837 835 833 830 828 825 821 818 814 810 807 803 800 796 793 790 787 784 780 777 773 768 763 760 756 753 750 746 741 736 730 726 723 720 718 716 715 714 713 713 713 712 711 711 711 714 716 716 718 721 724 726 728 730 732 735 736 737 739
865 864 864 864 863 863 862 862 861 861 861 860 859 859 857 856 856 855 854 852 850 848 847 845 843 841 839 836 834 831 828 825 822 818 814 811 807 803 800 797 793 790 787 784 780 777 773 769 764 760 756 752 749 745 741 735 729 724 719 716 713 711 710 709 708 708 708 708 708 707 707 709 710 710 712 715 717 719 721 724 727 729 731 732 733
865 865 865 864 864 864 863 863 863 862 862 861 860 859 859 858 857 856 855 853 851 850 848 846 844 842 839 837 834 832 829 825 822 819 815 811 807 803 800 797 793 790 786 783 780 776 773 769 765 761 756 752 749 745 741 735 729 723 718 713 709 706 704 703 703 703 703 703 703 703 703 705 705 705 708 710 711 713 715 718 721 724 727 730 732
866 866 865 865 865 865 864 864 863 863 863 862 861 860 859 859 858 857 856 854 852 851 849 847 845 842 840 837 834 832 829 826 823 819 815 812 807 803 800 796 793 790 786 782 779 776 773 769 765 762 757 752 748 744 740 735 728 722 716 711 706 702 699 698 698 698 698 698 698 698 699 700 701 702 704 705 707 710 714 717 719 722 726 729 731
866 866 866 866 866 866 865 865 864 864 864 863 862 861 860 859 858 857 856 855 853 851 849 848 845 843 841 838 835 833 830 826 823 820 816 812 808 804 800 796 793 790 786 782 779 776 772 769 766 762 757 752 747 742 738 733 727 721 715 709 703 698 694 692 692 693 693 693 693 694 695 695 696 698 699 701 703 707 711 713 715 717 721 724 727
866 866 867 867 867 867 866 866 865 865 864 863 863 862 861 860 859 858 857 856 854 852 850 848 846 844 841 839 836 833 830 827 824 820 817 813 809 805 801 797 793 789 785 782 779 776 772 769 766 762 757 752 746 741 736 732 726 720 714 708 701 695 690 688 687 687 687 688 689 690 690 691 692 694 695 697 700 702 704 706 709 712 716 718 720
866 867 867 867 868 867 867 867 866 865 865 864 863 862 862 861 860 859 858 856 855 853 851 848 846 844 842 840 837 834 831 827 824 821 818 814 810 806 802 798 794 789 785 781 778 775 771 767 764 761 756 751 746 740 736 731 725 719 712 707 700 692 686 685 684 683 682 682 684 685 686 687 688 690 691 693 696 698 699 701 703 706 709 711 715
867 867 868 868 868 868 868 867 867 866 865 864 864 863 862 862 861 860 858 856 855 853 851 849 846 844 842 840 837 834 831 828 824 821 818 815 812 808 804 799 795 790 787 783 778 774 770 766 762 759 755 750 745 740 735 730 725 718 711 705 698 689 683 681 680 680 679 678 679 681 682 682 684 685 687 689 691 693 695 697 699 700 703 707 710
867 868 868 868 869 868 868 868 867 866 866 865 864 864 863 862 861 859 858 856 854 852 850 848 846 844 842 840 837 834 831 828 825 822 819 816 813 809 805 801 797 793 788 785 780 776 771 767 762 758 754 749 744 739 734 729 723 717 710 704 696 686 679 676 675 676 676 675 675 677 678 679 680 681 683 684 686 688 690 692 694 696 699 702 704
868 868 868 869 869 869 868 868 867 867 866 866 865 864 863 862 861 859 858 856 854 852 850 848 846 844 842 839 837 834 832 829 826 823 820 817 814 811 807 803 799 795 790 785 782 777 773 769 764 759 754 749 744 739 734 728 722 716 709 701 692 682 673 670 671 673 673 672 673 674 676 677 678 678 679 680 682 684 686 688 690 692 695 696 698
867 868 869 869 869 869 869 868 868 867 867 866 865 864 863 862 861 859 858 856 854 852 850 848 846 844 841 839 836 834 832 829 826 824 821 818 815 812 809 805 800 796 792 788 784 780 775 771 766 761 756 750 745 739 735 729 722 715 708 699 690 681 673 670 670 671 671 671 672 673 674 675 676 677 678 678 679 681 683 685 687 689 692 694 695
867 868 869 869 869 869 869 869 868 868 867 866 865 864 863 862 861 859 858 856 855 853 851 849 847 844 842 839 837 834 832 829 827 825 822 819 816 813 809 805 801 797 793 790 786 782 777 773 768 763 757 751 746 740 735 730 724 716 708 699 691 684 678 674 672 672 672 673 674 674 674 674 675 676 677 677 677 679 681 683 685 687 689 691 693
867 868 869 869 869 869 869 869 868 868 867 867 866 864 863 862 861 860 858 857 855 854 852 850 847 845 843 840 838 835 832 830 828 825 823 820 817 814 810 806 802 798 794 791 787 783 779 775 770 764 759 753 747 741 736 732 726 718 710 702 695 689 685 681 677 676 677 677 678 679 678 677 676 676 677 679 679 678 680 683 685 686 688 689 691
867 868 868 869 869 869 869 869 868 868 867 867 866 865 864 862 861 860 859 857 856 854 853 851 849 846 844 842 839 836 833 831 829 826 824 821 818 815 811 807 803 799 795 792 788 784 780 776 771 766 761 756 751 745 739 734 728 720 713 707 701 697 693 689 685 683 683 683 683 685 684 682 680 678 678 683 682 679 680 684 686 687 688 689 691
867 868 868 869 869 869 869 868 868 867 867 866 866 865 864 863 862 861 859 858 856 855 853 852 850 847 845 843 841 838 835 832 830 827 825 822 819 816 812 808 804 800 796 793 789 785 781 777 773 769 763 758 753 747 742 737 731 724 719 713 708 705 701 697 693 691 690 689 689 690 690 688 684 680 681 685 686 683 683 686 688 690 691 691 692
867 868 868 868 869 869 868 868 868 867 867 866 866 865 864 863 862 861 859 858 857 856 854 852 851 849 847 845 842 840 837 834 832 829 827 824 821 818 814 810 807 803 799 796 792 788 784 779 774 769 764 759 754 749 744 740 735 731 726 720 716 711 707 702 699 697 697 696 695 694 694 693 689 686 686 689 690 688 687 690 692 693 694 694 696
867 868 868 868 868 868 868 868 868 867 867 866 866 865 864 863 862 861 860 859 858 857 855 854 852 850 849 847 844 841 839 837 835 833 830 827 824 820 817 813 810 807 804 800 795 790 786 781 776 772 767 763 759 753 749 745 741 736 732 727 723 719 713 709 707 705 704 703 701 698 698 699 696 693 693 694 694 693 693 695 696 696 696 698 702
868 868 868 868 868 868 868 868 867 867 867 866 866 865 864 863 862 861 860 859 858 858 856 855 853 852 850 848 847 844 842 840 837 835 832 829 826 823 820 817 814 810 806 802 798 793 789 785 781 778 773 769 765 760 755 752 747 743 738 734 730 726 722 719 717 715 713 711 708 706 706 706 704 702 702 702 701 700 700 700 700 700 701 703 707
867 868 868 868 868 868 868 868 867 867 867 866 866 865 864 863 863 862 861 860 859 858 857 856 854 853 851 850 848 846 844 841 839 836 834 831 828 825 822 819 816 812 808 804 800 796 793 789 786 783 779 775 771 767 762 758 754 750 745 740 736 733 730 728 726 724 721 719 717 715 714 713 712 712 712 711 710 708 707 706 706 706 708 709 713
867 867 868 868 868 868 868 867 867 867 867 866 866 865 864 864 863 862 861 860 859 858 858 856 855 854 852 850 848 846 843 841 839 837 834 832 829 826 823 820 817 814 810 806 802 799 797 794 790 787 784 780 777 773 769 764 760 756 751 747 744 741 738 736 733 730 728 726 725 723 722 722 721 721 720 719 719 717 715 713 712 713 714 715 718
866 867 867 868 868 868 868 868 867 867 867 866 866 865 865 864 863 863 862 861 860 859 858 857 855 854 853 851 849 846 844 842 840 838 835 833 830 827 825 822 819 816 812 808 805 803 800 797 794 791 788 785 782 778 774 771 767 763 758 755 752 749 746 743 739 736 734 733 732 730 730 730 729 728 726 727 727 726 723 721 720 719 720 721 724
866 867 867 867 868 868 868 868 868 867 867 867 866 866 865 864 864 863 862 861 860 859 858 857 855 854 853 852 849 847 845 842 840 838 836 834 832 829 827 824 821 817 814 811 808 806 803 801 798 795 792 789 786 783 779 776 773 769 766 762 759 756 753 749 745 743 742 740 738 737 737 736 736 734 733 734 734 733 731 729 728 728 728 729 731
866 867 867 867 867 867 867 868 867 867 867 866 866 866 865 864 864 863 862 861 860 859 858 857 856 854 853 852 850 848 845 843 841 839 837 835 833 830 828 825 821 818 816 813 811 809 806 804 801 798 796 793 790 787 784 781 777 774 771 768 765 762 759 756 753 751 749 747 746 745 744 743 742 741 740 740 740 740 739 738 736 736 736 737 738
866 866 867 867 867 867 867 867 867 867 866 866 865 865 864 864 864 863 862 861 860 859 858 857 856 855 854 852 850 848 846 843 841 839 837 836 834 831 828 825 823 820 818 816 814 812 810 807 805 802 799 796 793 791 788 785 782 779 776 773 770 767 765 762 760 758 756 755 754 753 751 750 749 748 747 747 747 747 746 745 744 744 744 743 744
866 866 867 867 867 867 867 867 867 866 866 866 865 865 864 864 863 863 862 861 860 859 858 857 856 855 854 853 851 849 847 845 842 840 838 836 834 832 830 828 826 823 821 819 817 815 812 810 808 805 803 800 797 795 792 789 786 784 781 778 775 773 770 768 766 764 762 761 760 759 757 756 756 755 754 753 753 753 752 752 751 750 750 750 750
865 866 866 866 866 866 866 866 866 866 866 865 865 865 864 864 863 863 862 861 860 859 858 857 856 855 854 853 851 849 848 845 843 840 838 837 835 833 832 830 828 826 824 822 820 818 815 813 810 808 806 803 801 798 796 793 790 788 785 783 780 778 775 772 770 769 768 767 766 765 763 762 761 761 760 759 759 758 758 757 757 756 756 755 755
865 865 866 866 866 866 866 866 866 865 865 865 865 864 864 863 863 862 862 861 860 859 858 857 856 855 854 853 852 850 848 846 843 841 839 837 836 835 833 832 830 828 826 824 822 820 818 816 813 811 809 806 804 802 800 797 795 792 790 787 785 782 780 778 776 774 773 772 771 769 768 767 766 765 765 764 764 764 763 763 762 761 761 761 761
864 865 865 865 865 865 865 865 865 865 865 864 864 863 863 862 862 862 861 860 860 859 858 857 856 855 854 853 852 850 849 846 844 843 841 839 837 836 834 833 831 830 828 826 824 822 820 818 816 813 811 809 807 805 803 801 798 796 794 791 789 787 785 783 781 780 778 777 776 774 773 772 771 770 769 768 768 768 768 767 767 766 766 766 766
863 864 864 864 864 864 864 864 864 864 864 864 863 862 862 861 861 861 861 860 859 858 858 857 856 855 854 853 852 851 850 848 846 844 842 840 839 837 835 834 833 831 830 828 826 824 822 820 818 816 813 811 809 807 805 804 801 799 797 795 793 791 789 787 785 784 782 781 780 778 777 777 776 775 774 773 773 772 772 772 771 771 771 771 771
862 862 863 863 863 863 863 863 863 863 863 863 862 861 861 861 861 861 860 860 859 858 857 857 856 855 854 853 852 851 850 849 847 845 843 841 840 838 836 835 834 832 831 829 827 825 824 822 820 818 816 813 812 809 808 806 804 802 800 798 796 794 793 791 789 788 786 785 784 782 781 781 780 779 778 777 777 776 776 776 776 775 775 775 776
861 861 862 862 862 862 863 863 863 863 862 862 861 861 860 860 860 860 860 859 858 857 857 856 856 855 854 853 852 851 850 849 848 846 844 842 841 839 837 836 834 833 832 830 829 827 825 824 822 820 818 816 814 812 810 809 807 805 803 801 800 798 796 795 793 792 790 789 788 786 785 784 783 783 782 781 780 780 780 780 779 779 779 780 780
859 860 860 860 861 861 861 862 862 862 861 861 861 860 860 860 860 860 859 858 858 857 856 856 855 854 853 853 852 851 850 849 848 846 845 843 842 840 838 837 835 834 832 831 830 828 827 825 823 822 820 819 817 815 813 811 809 807 806 804 802 801 799 798 796 795 793 792 791 790 789 788 787 786 786 785 784 784 783 783 783 783 783 783 784
858 858 859 859 860 860 860 861 861 861 860 860 860 860 860 860 859 859 858 858 857 856 855 855 854 854 853 852 852 851 850 849 848 847 845 844 842 841 839 838 836 835 833 832 831 829 828 827 825 823 822 820 818 817 815 813 811 810 808 806 805 803 802 801 800 798 797 795 794 793 792 791 790 790 789 789 788 788 787 786 786 786 786 787 787
857 857 857 858 858 859 859 859 860 860 859 859 859 859 859 859 858 858 857 857 856 855 855 854 854 853 852 852 851 850 849 849 848 847 845 844 843 842 840 839 837 836 834 833 832 830 829 828 826 825 823 821 820 819 817 815 814 812 810 808 807 806 805 804 803 801 800 799 797 796 795 794 793 793 792 791 791 790 790 789 789 789 789 790 790
856 856 856 857 857 857 858 858 858 858 858 858 858 858 857 857 857 857 856 856 855 855 854 853 853 852 852 851 850 850 849 848 847 846 845 844 843 842 841 839 838 836 835 834 832 831 830 829 827 826 824 823 821 820 818 817 815 814 812 811 809 808 806 805 804 803 802 801 800 799 798 797 796 795 795 794 793 793 792 792 792 791 792 792 792
854 855 855 855 856 856 856 857 857 857 857 857 856 856 856 856 856 856 855 855 854 854 853 852 852 851 850 850 849 849 848 847 847 846 845 844 843 842 841 840 838 837 836 834 833 832 831 830 828 827 825 824 823 821 820 818 817 815 814 812 811 809 808 807 806 805 804 803 802 801 801 800 799 798 797 796 796 795 795 795 795 794 794 795 795
853 853 853 854 854 854 855 855 855 855 855 855 855 855 854 854 854 854 854 854 853 853 852 852 851 850 849 849 848 848 847 846 846 845 844 843 843 842 841 840 839 837 836 835 834 833 831 830 829 828 827 825 824 822 821 819 818 817 815 813 812 811 809 808 807 807 806 805 804 803 803 802 801 800 800 799 798 798 797 797 797 797 797 797 797
851 852 852 852 852 852 853 853 853 853 853 853 853 853 853 853 853 853 852 852 852 851 851 851 850 849 849 848 847 847 846 845 845 844 843 843 842 841 840 839 838 837 836 835 834 833 832 831 830 829 827 826 825 824 822 821 819 818 816 815 813 812 811 809 808 808 807 807 806 805 804 804 803 802 802 801 800 800 799 799 799 799 798 798 799
849 849 850 850 850 850 850 851 851 851 851 851 851 851 851 851 851 851 851 850 850 850 850 849 849 848 848 847 846 846 845 844 844 843 843 842 841 840 840 839 838 837 836 835 834 833 832 831 830 829 828 827 826 824 823 822 820 819 818 816 815 813 812 810 809 808 808 807 807 806 806 805 804 804 803 803 802 802 801 800 800 800 800 799 799